Skip Page Navigation
NASA JPL Caltech
NASA Logo - Jet Propulsion Laboratory + View the NASA Portal
+ Center for Near-Earth Object Studies
JPL Home Earth Solar System Stars & Galaxies Technology
JPL Solar System Dynamics
BODIES ORBITS EPHEMERIDES TOOLS PHYSICAL DATA DISCOVERY FAQ SITE MAP
JPL Small-Body Database Browser
Search: [ help ]  
150437 (2000 GM101)
Classification: Main-belt Asteroid          SPK-ID: 2150437
Ephemeris | Orbit Diagram | Orbital Elements | Mission Design | Physical Parameters | Discovery Circumstances | Close-Approach Data ]

[ show orbit diagram ]
Orbital Elements at Epoch 2459396.5 (2021-Jul-01.0) TDB
Reference: JPL 16 (heliocentric ecliptic J2000)
 Element Value Uncertainty (1-sigma)   Units 
e .1904230490298288 4.7817e-08  
a 2.404309494452003 1.1912e-08 au
q 1.946473549707086 1.1725e-07 au
i 1.730437411472167 4.7969e-06 deg
node 258.7237074674646 0.00017764 deg
peri 354.5870941621534 0.00017815 deg
M 207.3623233263499 1.6581e-05 deg
tp 2459973.855397428931
(2023-Jan-29.35539743)
6.5299e-05 TDB
period 1361.707984581085
3.73
1.012e-05
2.771e-08
d
yr
n .2643738628812918 1.9648e-09 deg/d
Q 2.86214543919692 1.4181e-08 au
  Orbit Determination Parameters
   # obs. used (total)      537  
   data-arc span      22019 days (60.28 yr)  
   first obs. used      1960-09-26  
   last obs. used      2021-01-08  
   planetary ephem.      DE441  
   SB-pert. ephem.      SB441-N16  
   condition code      0  
   norm. resid. RMS      .54204  
   source      ORB  
   producer      Otto Matic  
   solution date      2021-Apr-13 19:18:33  

Additional Information
 Earth MOID = .932071 au 
 Jupiter MOID = 2.18302 au 
 T_jup = 3.498 
[ show covariance matrix ]

Ephemeris | Orbit Diagram | Orbital Elements | Mission Design | Physical Parameters | Discovery Circumstances | Close-Approach Data ]

Physical Parameter Table
Parameter Symbol Value Units Sigma Reference Notes
absolute magnitude H 16.42   n/a MPCxxxxx  

150437 (2000 GM101)          Discovered 2000-Apr-07 by LINEAR at Socorro
Reference: 20070303/Numbers.arcLast Updated: 2007-03-07

[ hide close-approach data ]
Close-Approach Data   ...sorted by Date/Time (TDB)
Date/Time (TDB) Time Uncertainty
(days_HH:MM)
Body Nominal Distance (au) Minimum Distance (au) Maximum Distance (au) V-relative (km/s) V-infinity (km/s) JD (TDB) Time Uncertainty (minutes) Semi-major axis (km) Semi-minor axis (km) range-LOV angle (deg) N-sigma BP Orbit Ref. Reference Modified
1940-Jan-23 03:57 < 00:01 Hebe 0.0196630020692562 0.0196512671453501 0.0196747382430644 8.53169059261808 8.53169055556088 2429651.664518720 0.836392217086879 635.503403101946 46.7650929105568 -23.0331831342967 24971.1956507184 T 16 CATAB v2.0f-lin.ifort 2021-Apr-13 19:18:34 2021-Apr-13 19:18
Ephemeris | Orbit Diagram | Orbital Elements | Mission Design | Physical Parameters | Discovery Circumstances | Close-Approach Data ]
ABOUT SSD CREDITS/AWARDS PRIVACY/COPYRIGHT GLOSSARY LINKS
FirstGov 2021-Jul-30 19:18 UT
(server date/time)  
NASA Home Page
Site Manager:   Ryan S. Park
Webmaster  Alan B. Chamberlin